Total_Precipitation_Accumulation
0.03 0.06 0.07 0.08 0.11 0.13 0.13 0.22 0.30 0.31 0.29 0.35 0.48 0.65 0.84 0.93 1.11 1.26 1.32 1.42 1.59 1.75 2.10 2.50 3.16 4.12 4.54 5.20 5.21 4.82 4.47 4.30 4.23 4.17 4.16 4.17 4.26 4.40 4.54 4.47 4.21 4.14 4.02 4.04
0.04 0.05 0.05 0.05 0.08 0.09 0.11 0.18 0.24 0.33 0.37 0.43 0.62 0.78 0.99 1.11 1.20 1.29 1.27 1.43 1.48 1.63 2.23 2.84 3.33 3.83 4.11 4.29 4.54 4.89 4.88 4.80 4.52 4.44 4.69 5.11 5.32 5.22 5.26 5.18 5.06 4.87 4.72 4.68
0.04 0.04 0.03 0.04 0.07 0.07 0.10 0.15 0.20 0.32 0.44 0.60 0.86 1.15 1.23 1.28 1.39 1.34 1.28 1.35 1.40 1.58 1.97 2.62 3.15 3.54 3.99 4.31 4.36 4.65 4.80 4.97 5.17 5.31 5.46 5.85 6.11 5.96 5.69 5.31 5.11 4.91 4.64 4.54
0.03 0.02 0.03 0.06 0.07 0.08 0.11 0.11 0.17 0.26 0.46 0.71 0.90 1.40 1.50 1.43 1.52 1.54 1.59 1.58 1.57 1.73 1.95 2.32 2.76 3.04 3.41 3.70 3.99 4.33 4.56 4.79 5.31 6.02 6.31 6.32 6.36 6.18 5.83 5.50 5.19 4.83 4.50 4.24
0.03 0.03 0.04 0.06 0.06 0.06 0.07 0.09 0.14 0.23 0.39 0.70 0.80 1.16 1.67 1.62 1.70 1.70 1.76 1.79 1.77 1.78 1.92 2.08 2.16 2.51 3.00 3.23 3.46 3.87 4.32 4.80 5.43 5.97 6.29 6.50 6.39 6.13 5.82 5.36 5.00 4.63 4.30 3.94
0.04 0.04 0.04 0.06 0.07 0.06 0.07 0.11 0.20 0.27 0.46 0.86 0.73 0.94 1.68 1.86 1.83 1.72 1.72 1.80 1.78 1.71 1.77 1.86 2.01 2.23 2.54 2.84 3.09 3.35 3.92 4.62 5.05 5.42 5.74 5.90 5.97 5.84 5.53 5.06 4.75 4.43 4.07 3.73
0.08 0.07 0.05 0.05 0.07 0.09 0.14 0.35 0.69 0.84 0.96 0.93 0.61 0.97 1.77 1.95 1.91 1.82 1.81 1.99 1.80 1.57 1.63 1.86 1.98 2.18 2.42 2.70 3.04 3.34 3.74 4.29 4.59 4.69 4.83 5.09 5.26 5.22 5.11 4.91 4.61 4.21 3.70 3.24
0.18 0.16 0.08 0.07 0.10 0.13 0.16 0.35 0.78 1.04 1.03 0.96 0.90 1.54 2.01 1.98 1.89 1.85 1.84 1.89 1.81 1.71 1.77 1.87 1.93 2.10 2.41 2.61 2.76 3.10 3.36 3.87 4.14 4.00 4.07 4.32 4.55 4.53 4.41 4.21 3.78 3.38 3.01 2.71
0.24 0.22 0.09 0.08 0.10 0.11 0.17 0.26 0.37 0.65 0.77 1.05 1.46 2.01 2.33 2.31 2.21 2.09 1.98 1.83 1.79 1.73 1.77 1.88 1.88 1.98 2.17 2.38 2.54 2.70 2.87 3.23 3.50 3.44 3.46 3.51 3.52 3.55 3.47 3.29 2.97 2.63 2.36 2.13
0.17 0.22 0.13 0.10 0.13 0.16 0.19 0.23 0.38 0.73 1.04 1.37 1.67 2.28 2.86 2.73 2.46 2.20 2.06 1.80 1.77 1.64 1.63 1.75 1.83 1.90 1.81 1.87 2.16 2.40 2.46 2.58 2.69 2.69 2.71 2.71 2.77 2.86 2.78 2.51 2.22 2.08 1.99 1.83
0.15 0.26 0.22 0.20 0.24 0.27 0.28 0.32 0.38 0.59 0.76 1.21 1.70 2.30 2.45 2.55 2.38 2.14 1.96 1.76 1.60 1.53 1.60 1.71 1.81 1.85 1.70 1.59 1.69 1.95 2.15 2.20 2.27 2.35 2.38 2.29 2.27 2.20 2.13 1.99 1.81 1.78 1.72 1.60
0.21 0.32 0.39 0.31 0.25 0.22 0.26 0.32 0.40 0.73 0.79 0.92 1.44 2.21 2.18 2.44 2.48 2.33 2.07 1.88 1.84 1.73 1.73 1.77 1.93 1.85 1.72 1.70 1.69 1.75 1.86 1.95 2.01 2.03 2.12 2.16 2.07 1.89 1.79 1.71 1.63 1.54 1.47 1.41
0.26 0.46 0.71 0.78 0.60 0.38 0.32 0.33 0.39 0.47 0.68 0.96 1.52 2.34 2.29 2.33 2.37 2.30 2.09 2.03 2.03 2.01 2.02 1.96 1.94 1.84 1.76 1.76 1.67 1.56 1.61 1.70 1.75 1.79 1.82 1.78 1.72 1.66 1.57 1.54 1.52 1.40 1.33 1.25
0.28 0.50 0.82 1.19 1.02 0.63 0.50 0.43 0.44 0.55 0.85 1.05 1.38 1.89 2.18 2.14 2.23 2.36 2.28 2.08 2.08 2.14 2.12 2.05 1.99 1.95 1.87 1.81 1.67 1.56 1.53 1.47 1.40 1.48 1.55 1.56 1.52 1.49 1.44 1.34 1.31 1.28 1.26 1.20
0.38 0.59 0.57 0.57 0.55 0.54 0.51 0.48 0.49 0.59 0.70 1.07 1.38 1.80 2.15 2.07 2.21 2.48 2.48 2.33 2.19 2.20 2.20 2.14 2.19 2.11 2.05 2.01 1.87 1.75 1.62 1.49 1.41 1.39 1.36 1.43 1.50 1.47 1.41 1.38 1.34 1.27 1.20 1.11
0.44 0.59 0.58 0.53 0.47 0.51 0.55 0.58 0.53 0.57 0.72 1.04 1.43 1.95 2.05 2.05 2.14 2.27 2.40 2.35 2.24 2.25 2.29 2.32 2.43 2.37 2.29 2.24 2.06 1.90 1.76 1.56 1.43 1.40 1.37 1.39 1.44 1.43 1.38 1.36 1.31 1.24 1.17 1.15
0.46 0.62 0.76 0.68 0.48 0.73 1.08 0.91 0.79 0.80 0.91 1.17 1.57 1.80 1.76 1.87 2.09 2.19 2.27 2.40 2.38 2.48 2.62 2.66 2.60 2.54 2.43 2.32 2.30 2.17 1.93 1.73 1.64 1.55 1.44 1.42 1.38 1.33 1.30 1.18 1.14 1.18 1.19 1.15
0.49 0.66 0.78 0.82 0.90 1.49 1.40 0.91 0.86 0.99 1.15 1.24 1.35 1.41 1.59 1.81 1.98 2.06 2.25 2.49 2.55 2.54 2.50 2.57 2.51 2.51 2.42 2.30 2.23 2.15 1.98 1.81 1.63 1.52 1.40 1.32 1.31 1.26 1.24 1.21 1.19 1.20 1.19 1.12
0.35 0.61 0.89 1.04 1.38 1.53 1.43 0.99 1.00 1.22 1.58 1.39 1.42 1.41 1.52 1.62 1.81 2.19 2.26 2.36 2.57 2.44 2.35 2.42 2.50 2.52 2.46 2.33 2.14 2.02 1.93 1.82 1.69 1.51 1.32 1.21 1.21 1.16 1.12 1.15 1.18 1.16 1.14 1.09
0.38 0.56 1.02 1.29 1.65 1.88 1.71 1.00 0.84 1.26 2.25 1.70 1.57 1.57 1.55 1.67 2.18 2.33 2.08 2.02 2.13 2.19 2.29 2.41 2.52 2.56 2.49 2.37 2.06 1.92 1.80 1.65 1.49 1.28 1.15 1.12 1.14 1.08 1.05 1.07 1.08 1.06 1.06 1.06
0.83 0.90 1.12 1.42 1.86 1.97 1.23 0.77 0.89 1.82 2.30 1.78 1.67 1.62 1.65 1.87 2.06 1.87 1.72 1.80 1.97 2.12 2.27 2.37 2.39 2.40 2.32 2.23 1.99 1.89 1.71 1.54 1.29 1.09 1.02 1.06 1.06 1.00 0.96 1.00 1.02 1.03 0.97 1.00
1.18 1.36 1.45 1.61 2.05 2.17 1.06 0.84 1.27 1.63 1.36 1.29 1.31 1.29 1.34 1.44 1.51 1.55 1.60 1.67 1.74 1.86 2.05 2.18 2.23 2.21 2.09 1.97 1.82 1.71 1.57 1.32 1.12 1.01 0.97 1.02 1.06 0.85 0.75 0.87 0.89 0.92 1.00 0.98
1.15 1.33 1.57 1.83 2.16 1.78 1.15 1.07 1.07 1.14 1.15 1.09 1.14 1.10 1.12 1.21 1.27 1.39 1.56 1.66 1.68 1.65 1.80 1.88 1.81 1.72 1.72 1.65 1.54 1.43 1.30 1.12 0.99 0.96 1.00 0.99 0.97 0.88 0.81 0.85 0.86 0.89 0.94 0.92
1.23 1.08 1.34 1.58 1.66 1.38 1.10 1.00 0.97 0.87 0.85 0.89 1.02 1.04 1.01 1.01 1.00 1.11 1.25 1.40 1.47 1.45 1.45 1.50 1.52 1.47 1.44 1.38 1.29 1.18 1.04 1.00 0.98 0.98 0.99 1.00 0.96 0.87 0.82 0.85 0.80 0.81 0.81 0.80
1.28 1.26 1.49 1.68 1.65 1.42 1.22 1.04 0.93 0.87 0.84 0.89 0.94 0.90 0.85 0.81 0.81 0.85 1.00 1.09 1.14 1.18 1.16 1.18 1.28 1.30 1.19 1.11 1.08 1.02 0.92 0.91 0.99 1.01 0.97 0.95 0.85 0.82 0.83 0.77 0.66 0.62 0.59 0.60
1.17 1.37 1.68 1.88 1.59 1.49 1.34 1.02 0.83 0.82 0.81 0.79 0.77 0.73 0.73 0.71 0.71 0.75 0.91 1.01 1.03 1.01 1.02 1.08 1.13 1.09 1.04 0.99 0.96 0.90 0.82 0.82 0.93 0.98 0.93 0.85 0.78 0.74 0.71 0.73 0.64 0.56 0.52 0.51